Content
SEND FEEDBACK

Daily
Averages
Monthly
Summary
Canada

QUEBEC CITY, QUEBEC


Home > North America > Canada > Quebec
Elevation: 72 meters     Latitude: 46 48N     Longitude: 071 23W

WEATHER
 
SELECT A DAY
Number of Records: 196,977;   Date Range: 6/30/96 - 11/22/14
 
SHARE

PRINT THIS DATA

[ ← Previous Day ]
WEATHER ALMANAC - 6 JULY, 2013
[ Next Day → ]
[ °F ]   °C
Weather ElementAverageHighLow
Temperature24.5 °C30 °C (5:00 pm)18.3 °C (5:00 am)
Dewpoint18.8 °C22 °C (2:00 pm) (7:00 pm)
Humidity75.4 %100 % (4:00 am)54 % (2:00 pm)
Barometer981.7 hPa1015.6 hPa (1:00 am) (7:00 pm)
Wind Speed18 km/h35.2 km/h (3:00 pm)
Wind Gust48.1 km/h (3:00 pm)
Weather ElementAverage
Visibility17.7 km
Wind DirectionWSW (235.9 °)

Weather ElementTotal
Precipitation---
Cooling Degree Days5.8 (Base 18.3)
Growing Degree Days14.2 (Base 10)
Averaged from 32 records on 6 July, 2013
WEATHER CONDITIONS BREAKOUT
WIND DIRECTION BREAKOUT
WEATHER BY HOUR - 6 JULY, 2013
[ °F ]   °C
Local TimeTemperatureDewpointHumidityBarometerVisibilityWind DirectionWind SpeedGust SpeedPrecipitationEventsConditions
1:00 AM22 °C21 °C94 %1015.6 hPa16.1 kmSW (220°)11.1 km/hPartly Cloudy
2:00 AM21.1 °C20.6 °C94 %1014.6 hPaSouth (190°)3.7 km/h
2:00 AM21 °C20 °C94 %1015.2 hPa16.1 kmSSW (210°)7.4 km/hScattered Clouds
3:00 AM21 °C20 °C94 %1014.9 hPa16.1 kmSW (220°)14.8 km/hPartly Cloudy
4:00 AM20 °C20 °C100 %1014.6 hPa16.1 kmWSW (250°)7.4 km/hScattered Clouds
5:00 AM18.3 °C17.8 °C97 %1014.6 hPaWest (280°)5.6 km/h
5:00 AM20 °C19 °C94 %1014.9 hPa12.9 kmWSW (240°)11.1 km/hScattered Clouds
6:00 AM20 °C19 °C94 %1015.2 hPa12.9 kmWSW (240°)14.8 km/hPartly Cloudy
7:00 AM21 °C19 °C88 %1015.6 hPa4.8 kmWSW (240°)14.8 km/hOvercast
7:31 AM21 °C-17.8 °C6.4 kmWSW (240°)24.1 km/hMostly Cloudy
8:00 AM21.7 °C20 °C87 %1014.6 hPaSW (230°)13 km/h
8:00 AM22 °C20 °C88 %1015.6 hPa4.8 kmWSW (240°)18.5 km/hMostly Cloudy
9:00 AM24 °C20 °C78 %1015.6 hPa12.9 kmWSW (250°)16.7 km/hMostly Cloudy
10:00 AM25 °C20 °C74 %1015.6 hPa16.1 kmWSW (240°)22.2 km/hMostly Cloudy
11:00 AM25.6 °C20.6 °C67 %1014.2 hPaWSW (240°)11.1 km/h
11:00 AM26 °C21 °C74 %1014.9 hPa16.1 kmSSW (210°)18.5 km/hMostly Cloudy
12:00 PM26 °C21 °C74 %1014.6 hPa16.1 kmWSW (250°)20.4 km/hMostly Cloudy
1:00 PM28 °C20 °C62 %1013.9 hPa24.1 kmWSW (240°)24.1 km/hScattered Clouds
2:00 PM28.3 °C20.6 °C54 %1012.9 hPaWSW (240°)16.7 km/h
2:00 PM29 °C22 °C66 %1013.2 hPa24.1 kmSW (230°)29.6 km/h40.7 km/hPartly Cloudy
3:00 PM29 °C20 °C58 %1012.5 hPa24.1 kmSW (220°)35.2 km/h48.1 km/hPartly Cloudy
4:00 PM29 °C20 °C58 %1012.2 hPa24.1 kmSW (230°)33.3 km/h46.3 km/hPartly Cloudy
5:00 PM28.3 °C20.6 °C54 %1011.2 hPaWSW (240°)18.5 km/h
5:00 PM30 °C21 °C58 %1011.9 hPa24.1 kmWSW (240°)31.5 km/h42.6 km/hPartly Cloudy
6:00 PM29 °C20 °C58 %1011.2 hPa16.1 kmWSW (240°)29.6 km/h42.6 km/hPartly Cloudy
7:00 PM28 °C19 °C58 %1011.2 hPa24.1 kmWSW (250°)25.9 km/hPartly Cloudy
8:00 PM26.1 °C20 °C60 %1010.5 hPaWSW (240°)11.1 km/h
8:00 PM27 °C20 °C65 %1011.2 hPa24.1 kmWSW (250°)24.1 km/hPartly Cloudy
9:00 PM25 °C20 °C74 %1011.9 hPa24.1 kmWSW (240°)16.7 km/hPartly Cloudy
10:00 PM24 °C20 °C78 %1012.2 hPa24.1 kmWSW (240°)18.5 km/hClear
11:00 PM23.9 °C19.4 °C70 %1011.5 hPaSW (230°)11.1 km/h
11:00 PM24 °C19 °C73 %1012.2 hPa24.1 kmSW (230°)14.8 km/hClear
Hourly data recorded from CYQB, located 0 kilometers away from Quebec City, Quebec







STORIES FROM OUR PARTNERS